RYR0599 GCLP-LEVC

Flight info

Callsign RYR0599
Flight time N/A
Altitude 38000
Route KORAL UG5 SONSO DCT NIRAL UN871 OSDAM UM985 BARPA M985 PIMOS M445 ETURA T252 XEBAR M985 ASTRO
Aircraft B38M/M-SDE1FGHILORVWXY/HB1

Departure

Time N/A
Airport Gran Canaria Airport (GCLP)

Arrival

Time 2026-04-28 12:29
Airport Valencia Airport (LEVC)
Time Latitude Longitude Altitude Speed Heading
2026-04-28 11:58 37.93649 -2.55244 37980 ft 450 kts 47°
2026-04-28 11:58 37.97966 -2.49490 37982 ft 451 kts 47°
2026-04-28 11:59 38.02279 -2.43727 37984 ft 451 kts 47°
2026-04-28 11:59 38.06597 -2.37951 37990 ft 451 kts 47°
2026-04-28 12:00 38.10877 -2.32212 37997 ft 451 kts 47°
2026-04-28 12:00 38.15184 -2.26428 37999 ft 451 kts 47°
2026-04-28 12:01 38.19528 -2.20801 37635 ft 442 kts 38°
2026-04-28 12:01 38.22152 -2.18838 37147 ft 437 kts 21°
2026-04-28 12:01 38.25046 -2.17741 36698 ft 432 kts 15°
2026-04-28 12:02 38.27942 -2.16771 36226 ft 428 kts 14°
2026-04-28 12:02 38.29847 -2.16154 35909 ft 426 kts 14°
2026-04-28 12:02 38.32726 -2.15242 35423 ft 424 kts 14°
2026-04-28 12:02 38.35577 -2.14357 34959 ft 421 kts 13°
2026-04-28 12:03 38.38418 -2.13483 34492 ft 418 kts 13°
2026-04-28 12:03 38.41226 -2.12621 34030 ft 415 kts 13°
2026-04-28 12:03 38.44036 -2.11759 33498 ft 413 kts 13°
2026-04-28 12:03 38.46820 -2.10904 33005 ft 410 kts 13°
2026-04-28 12:04 38.49560 -2.10013 32527 ft 407 kts 19°
2026-04-28 12:04 38.52073 -2.08371 31947 ft 405 kts 38°
2026-04-28 12:04 38.53989 -2.05926 31520 ft 400 kts 52°
2026-04-28 12:04 38.55732 -2.03185 31152 ft 395 kts 51°
2026-04-28 12:05 38.57443 -2.00495 30716 ft 392 kts 51°
2026-04-28 12:05 38.59139 -1.97780 30259 ft 390 kts 51°
2026-04-28 12:05 38.60821 -1.95058 29759 ft 389 kts 52°
2026-04-28 12:05 38.62487 -1.92345 29268 ft 386 kts 52°
2026-04-28 12:06 38.64119 -1.89677 28832 ft 383 kts 52°
2026-04-28 12:06 38.65751 -1.87006 28398 ft 379 kts 52°
2026-04-28 12:06 38.67365 -1.84359 27970 ft 377 kts 52°
2026-04-28 12:06 38.68973 -1.81722 27541 ft 374 kts 52°
2026-04-28 12:07 38.70590 -1.79069 27090 ft 374 kts 52°
2026-04-28 12:07 38.72189 -1.76440 26604 ft 375 kts 53°
2026-04-28 12:07 38.73789 -1.73809 26140 ft 375 kts 53°
2026-04-28 12:07 38.75369 -1.71205 25695 ft 375 kts 53°
2026-04-28 12:08 38.76972 -1.68564 25239 ft 375 kts 53°
2026-04-28 12:08 38.78572 -1.65922 24802 ft 375 kts 53°
2026-04-28 12:08 38.80186 -1.63259 24373 ft 374 kts 53°
2026-04-28 12:08 38.81782 -1.60623 23938 ft 373 kts 53°
2026-04-28 12:09 38.83368 -1.58001 23486 ft 372 kts 53°
2026-04-28 12:09 38.84936 -1.55405 22993 ft 371 kts 53°
2026-04-28 12:09 38.86511 -1.52798 22497 ft 370 kts 53°
2026-04-28 12:09 38.88088 -1.50185 21997 ft 370 kts 53°
2026-04-28 12:10 38.89663 -1.47572 21530 ft 369 kts 54°
2026-04-28 12:10 38.91233 -1.44966 21034 ft 369 kts 54°
2026-04-28 12:10 38.92798 -1.42364 20578 ft 368 kts 54°
2026-04-28 12:10 38.94365 -1.39758 20111 ft 368 kts 54°
2026-04-28 12:11 38.95929 -1.37157 19640 ft 367 kts 54°
2026-04-28 12:11 38.97489 -1.34559 19191 ft 367 kts 54°
2026-04-28 12:11 38.99045 -1.31965 18742 ft 367 kts 54°
2026-04-28 12:11 39.00601 -1.29369 18292 ft 367 kts 54°
2026-04-28 12:12 39.02160 -1.26767 17788 ft 367 kts 54°
2026-04-28 12:12 39.03713 -1.24173 17285 ft 366 kts 54°
2026-04-28 12:12 39.05267 -1.21574 16778 ft 365 kts 54°
2026-04-28 12:12 39.06810 -1.18992 16310 ft 364 kts 54°
2026-04-28 12:13 39.08348 -1.16414 15824 ft 363 kts 54°
2026-04-28 12:13 39.09884 -1.13839 15355 ft 362 kts 54°
2026-04-28 12:13 39.11379 -1.11333 14910 ft 362 kts 54°
2026-04-28 12:13 39.12942 -1.08707 14440 ft 361 kts 54°
2026-04-28 12:14 39.14472 -1.06137 13997 ft 359 kts 54°
2026-04-28 12:14 39.15953 -1.03647 13535 ft 358 kts 54°
2026-04-28 12:14 39.17483 -1.01072 13041 ft 357 kts 54°
2026-04-28 12:14 39.18986 -0.98541 12550 ft 356 kts 54°
2026-04-28 12:15 39.20485 -0.96013 12069 ft 350 kts 54°
2026-04-28 12:15 39.21929 -0.93577 11548 ft 338 kts 54°
2026-04-28 12:15 39.23340 -0.91196 10978 ft 331 kts 54°
2026-04-28 12:15 39.24962 -0.89125 10378 ft 326 kts 33°
2026-04-28 12:16 39.27022 -0.88073 10029 ft 310 kts
2026-04-28 12:16 39.29010 -0.87388 10031 ft 286 kts 28°
2026-04-28 12:16 39.30426 -0.85706 10025 ft 278 kts 58°
2026-04-28 12:16 39.31555 -0.83661 9959 ft 282 kts 44°
2026-04-28 12:17 39.33254 -0.82441 9792 ft 283 kts 11°
2026-04-28 12:17 39.35193 -0.82524 9285 ft 283 kts 338°
2026-04-28 12:17 39.36924 -0.83723 8845 ft 282 kts 324°
2026-04-28 12:17 39.38662 -0.84928 8398 ft 287 kts 336°
2026-04-28 12:18 39.40546 -0.85822 7968 ft 291 kts 338°
2026-04-28 12:18 39.42448 -0.86723 7617 ft 289 kts 338°
2026-04-28 12:18 39.44323 -0.87612 7283 ft 283 kts 338°
2026-04-28 12:18 39.46136 -0.88481 6978 ft 276 kts 338°
2026-04-28 12:19 39.47928 -0.89348 6665 ft 271 kts 338°
2026-04-28 12:19 39.49666 -0.90207 6337 ft 265 kts 338°
2026-04-28 12:19 39.51369 -0.91061 6018 ft 258 kts 338°
2026-04-28 12:19 39.52975 -0.91886 5938 ft 239 kts 338°
2026-04-28 12:20 39.54529 -0.92523 5860 ft 238 kts 351°
2026-04-28 12:20 39.56190 -0.92768 5658 ft 237 kts 357°
2026-04-28 12:20 39.57801 -0.92577 5405 ft 230 kts 22°
2026-04-28 12:20 39.59230 -0.91733 5260 ft 229 kts 30°
2026-04-28 12:21 39.60645 -0.90785 5077 ft 227 kts 32°
2026-04-28 12:21 39.61929 -0.89637 4939 ft 222 kts 44°
2026-04-28 12:21 39.63094 -0.88322 4976 ft 223 kts 46°
2026-04-28 12:21 39.63947 -0.86710 4939 ft 215 kts 76°
2026-04-28 12:22 39.64247 -0.84816 4761 ft 215 kts 84°
2026-04-28 12:22 39.64237 -0.82919 4576 ft 209 kts 111°
2026-04-28 12:22 39.63412 -0.81418 4417 ft 205 kts 138°
2026-04-28 12:22 39.62375 -0.80141 4262 ft 208 kts 130°
2026-04-28 12:23 39.61486 -0.78656 3957 ft 208 kts 126°
2026-04-28 12:23 39.60622 -0.77167 3688 ft 205 kts 127°
2026-04-28 12:23 39.59719 -0.75740 3472 ft 204 kts 129°
2026-04-28 12:23 39.58778 -0.74374 3255 ft 204 kts 128°
2026-04-28 12:24 39.58111 -0.72792 2933 ft 199 kts 109°
2026-04-28 12:24 39.57592 -0.71180 2772 ft 186 kts 113°
2026-04-28 12:24 39.57038 -0.69653 2796 ft 189 kts 114°
2026-04-28 12:24 39.56472 -0.68115 2828 ft 188 kts 114°
2026-04-28 12:25 39.55914 -0.66600 2812 ft 182 kts 114°
2026-04-28 12:25 39.55385 -0.65174 2802 ft 174 kts 115°
2026-04-28 12:25 39.54853 -0.63766 2589 ft 170 kts 114°
2026-04-28 12:25 39.54356 -0.62457 2363 ft 153 kts 115°
2026-04-28 12:26 39.53891 -0.61243 2191 ft 148 kts 114°
2026-04-28 12:26 39.53444 -0.60058 2042 ft 144 kts 115°
2026-04-28 12:26 39.53026 -0.58953 1826 ft 130 kts 115°
2026-04-28 12:26 39.52627 -0.57906 1654 ft 130 kts 115°
2026-04-28 12:27 39.52224 -0.56842 1465 ft 133 kts 114°
2026-04-28 12:27 39.51824 -0.55781 1257 ft 129 kts 115°
2026-04-28 12:27 39.51427 -0.54746 1102 ft 131 kts 115°
2026-04-28 12:27 39.51029 -0.53683 924 ft 132 kts 115°
2026-04-28 12:28 39.50619 -0.52610 737 ft 129 kts 116°
2026-04-28 12:28 39.50234 -0.51591 569 ft 125 kts 117°
2026-04-28 12:28 39.49858 -0.50597 406 ft 123 kts 116°
2026-04-28 12:28 39.49485 -0.49618 245 ft 116 kts 116°
2026-04-28 12:29 39.49066 -0.48519 213 ft 31 kts 116°
2026-04-28 12:29 39.48997 -0.48329 216 ft 22 kts 111°
2026-04-28 12:29 39.48982 -0.48154 212 ft 13 kts 86°
2026-04-28 12:30 39.48996 -0.48032 219 ft 15 kts 78°
2026-04-28 12:30 39.49020 -0.47897 220 ft 14 kts 75°
2026-04-28 12:30 39.49043 -0.47777 215 ft 15 kts 76°
2026-04-28 12:30 39.49050 -0.47636 212 ft 17 kts 102°
2026-04-28 12:31 39.49030 -0.47560 218 ft 9 kts 112°
2026-04-28 12:31 39.49023 -0.47497 216 ft 5 kts 70°
2026-04-28 12:31 39.49048 -0.47462 219 ft 5 kts 40°
2026-04-28 12:31 39.49079 -0.47427 211 ft 2 kts 40°
2026-04-28 12:32 39.49080 -0.47427 211 ft 0 kts 40°